Вернуться в каталог

GALAXY 3R

АктивенСвязьGEO
NORAD 23741·PAYLOAD·🇺🇸 United States

Запущен Dec 15, 1995 с Cape Canaveral Space Force Station

Loading…

TLE

СвежийSource: Space-Track

Эпоха: Sep 14, 2026, 09:26 UTC

1 23741U 95069A   26257.39322013 -.00000201  00000-0  00000-0 0  9995
2 23741  13.3730  15.5538 0003992 145.7831 241.4895  1.00323144112718

Отслеживайте GALAXY 3R в реальном времени с AllMySat

Download on the App Store